• MPC Preparation (Info)

  • MPEC 2008-C54 : 2008 CC22

    The following Minor Planet Electronic Circular may be linked-to from your own Web pages, but must not otherwise be redistributed electronically.

    A form allowing access to any MPEC is at the bottom of this page.


    Read MPEC 2008-C53 Read MPEC 2008-C55


    M.P.E.C. 2008-C54                                Issued 2008 Feb.  9, 15:02 UT
    
         The Minor Planet Electronic Circulars contain information on unusual
             minor planets and routine data on comets.  They are published
       on behalf of Commission 20 of the International Astronomical Union by the
              Minor Planet Center, Smithsonian Astrophysical Observatory,
                              Cambridge, MA 02138, U.S.A.
    
                 Prepared using the Tamkin Foundation Computer Network
    
                                  MPC@CFA.HARVARD.EDU
              URL http://www.cfa.harvard.edu/iau/mpc.html  ISSN 1523-6714
    
                                       2008 CC22
    
    Observations:
         K08C22C  C2008 02 08.36692 10 18 38.95 +14 16 10.2          21.3 V EC054G96
         K08C22C  C2008 02 08.37344 10 18 39.27 +14 16 01.0          21.4 V EC054G96
         K08C22C  C2008 02 08.38000 10 18 39.56 +14 15 51.5          21.2 V EC054G96
         K08C22C  C2008 02 08.38647 10 18 39.88 +14 15 42.0          21.2 V EC054G96
         K08C22C* C2008 02 08.42348 10 18 41.72 +14 14 49.8          20.5 V EC054G96
         K08C22C  C2008 02 08.43028 10 18 42.04 +14 14 40.1          21.6 V EC054G96
         K08C22C  C2008 02 08.43702 10 18 42.40 +14 14 30.4          20.3 V EC054G96
         K08C22C  C2008 02 08.44375 10 18 42.76 +14 14 20.5          20.8 V EC054G96
         K08C22C  C2008 02 08.98084 10 19 21.14 +14 01 11.7          21.8 V EC054B21
         K08C22C  C2008 02 08.99358 10 19 21.86 +14 00 52.9          21.9 V EC054B21
         K08C22C  C2008 02 08.99995 10 19 22.16 +14 00 43.6          21.3 V EC054B21
         K08C22C  C2008 02 09.36034 10 19 47.24 +13 51 48.7          21.2 V EC054G96
         K08C22C  C2008 02 09.36860 10 19 47.67 +13 51 36.1          21.2 V EC054G96
         K08C22C  C2008 02 09.37677 10 19 48.10 +13 51 23.2          20.7 V EC054G96
         K08C22C  C2008 02 09.38503 10 19 48.54 +13 51 10.7          21.0 V EC054G96
    
    Observer details:
    B21 Gaisberg Observatory, Schaerding.  Observer R. Gierlinger.  0.6-m f/3.3
        Newtonian reflector + CCD.
    G96 Mt. Lemmon Survey.  Observer S. M. Larson.  Measurers E. C. Beshore,
        A. Boattini, G. J. Garradd, A. R. Gibbs, A. D. Grauer, R. E. Hill,
        R. A. Kowalski, S. M. Larson, R. H. McNaught.  1.5-m reflector + CCD.
    
    Orbital elements:
    2008 CC22                                                Earth MOID = 0.0192 AU
    Epoch 2007 Oct. 27.0 TT = JDT 2454400.5                 MPC
    M 301.64302              (2000.0)            P               Q
    n   0.35520858     Peri.  249.14500     -0.79819261     +0.60098578
    a   1.9746059      Node   327.75471     -0.51993207     -0.72191246
    e   0.5750115      Incl.    4.43817     -0.30423544     -0.34301385
    P   2.77           H   23.9           G   0.15           U   8
    Residuals in seconds of arc
    080208 G96  0.2+  0.2+    080208 G96  0.3-  0.1+    080208 B21  0.5-  0.1+
    080208 G96  0.2+  0.2+    080208 G96  0.0   0.1+    080209 G96  0.1+  0.1-
    080208 G96  0.2-  0.1-    080208 G96  0.2+  0.1-    080209 G96  0.0   0.1+
    080208 G96  0.1-  0.4-    080208 B21  0.1-  0.2-    080209 G96  0.0   0.1-
    080208 G96  0.1+  0.0     080208 B21  0.2+  0.1-    080209 G96  0.1+  0.3+
    
    Ephemeris:
    2008 CC22                a,e,i = 1.97, 0.58, 4                   q = 0.8392
    Date    TT    R. A. (2000) Decl.     Delta      r     Elong.  Phase     V
    2008 02 04    10 14.37   +15 39.7    0.220    1.199   163.9    13.2    21.8
    2008 02 06    10 16.21   +15 05.7    0.201    1.182   165.4    12.2    21.5
    2008 02 08    10 18.25   +14 24.8    0.183    1.165   166.8    11.2    21.2
    2008 02 10    10 20.57   +13 35.1    0.165    1.148   168.1    10.2    20.9
    2008 02 12    10 23.28   +12 33.3    0.147    1.132   169.3     9.4    20.6
    2008 02 14    10 26.57   +11 15.0    0.130    1.115   170.2     8.7    20.3
    2008 02 16    10 30.70   +09 33.0    0.113    1.099   170.8     8.3    19.9
    2008 02 18    10 36.09   +07 15.8    0.0962   1.083   170.6     8.6    19.6
    2008 02 20    10 43.49   +04 03.3    0.0801   1.067   169.1    10.0    19.2
    2008 02 22    10 54.28   -00 41.7    0.0647   1.052   165.6    13.5    18.8
    2008 02 24    11 11.43   -08 12.7    0.0504   1.037   158.7    20.3    18.5
    2008 02 26    11 42.44   -20 51.2    0.0381   1.022   145.6    33.2    18.2
    2008 02 28    12 50.41   -41 00.8    0.0304   1.007   122.4    56.1    18.4
    2008 03 01    15 36.33   -59 08.4    0.0306   0.993    92.6    85.7    19.3
    2008 03 03    18 44.18   -57 26.7    0.0386   0.979    70.0   107.9    20.8
    2008 03 05    20 06.10   -49 40.9    0.0508   0.965    57.3   120.2    22.2
    
    Timothy B. Spahr             (C) Copyright 2008 MPC           M.P.E.C. 2008-C54
    

    Read MPEC 2008-C53 Read MPEC 2008-C55


    MPEC number:

    Enter an MPEC number in one of the following forms:

    • 1997-B01 (the full form)
    • J97B01 (the packed version of the full form)
    • B01 (the abbreviated form)